Simultaneous Nadir Overpasses (SNOs) Predictions

Prediction of SNOs between AQUA and METOP-B Satellite Orbit:

Table of predicted SNOs for the next 14.0 days since TLE Epoch: 5/28/2016
Index Date (AQUA) Time (AQUA) Lat,Lon (AQUA) SZA (AQUA ) Date (METOP-B) Time (METOP-B) Lat,Lon (METOP-B) SZA (METOP-B ) Distance(km) Time Diff (sec)
1 05/29/2016 13:58:14 73.78, -35.19 52.03 05/29/2016 13:57:13 73.77, -35.18 52.02 1.80 61
2 05/29/2016 14:47:41 -73.87, 132.27 127.89 05/29/2016 14:47:53 -73.85, 132.34 127.91 2.85 12
3 05/29/2016 15:37:16 74.25, -60.96 52.51 05/29/2016 15:38:25 74.24, -59.35 52.46 48.57 69
4 06/01/2016 09:32:28 73.80, 31.22 51.65 06/01/2016 09:31:35 73.79, 31.27 51.64 1.99 53
5 06/01/2016 10:21:55 -73.88,-161.32 128.28 06/01/2016 10:22:15 -73.87,-161.20 128.29 3.62 20
6 06/01/2016 11:11:36 74.57, 4.71 52.47 06/01/2016 11:12:41 74.55, 7.87 52.36 93.48 65
7 06/04/2016 05:06:43 73.82, 97.61 51.33 06/04/2016 05:05:58 73.80, 97.72 51.32 3.86 45
8 06/04/2016 05:56:09 -73.84, -94.81 128.65 06/04/2016 05:56:39 -73.83, -94.87 128.66 2.28 30
9 06/07/2016 00:40:57 73.79, 164.09 51.02 06/07/2016 00:40:21 73.81, 164.16 51.04 2.68 36
10 06/07/2016 01:30:24 -73.87, -28.43 128.91 06/07/2016 01:31:02 -73.85, -28.43 128.94 2.84 38
11 06/09/2016 20:15:10 73.78,-129.44 50.77 06/09/2016 20:14:44 73.77,-129.53 50.76 2.99 26
12 06/09/2016 21:04:37 -73.86, 38.04 129.16 06/09/2016 21:05:24 -73.85, 38.00 129.17 1.07 47




NCC Satellite Simultaneous Nadir Overpasses (SNOs) Prediction Service
